Preview of NWS' New Version of Forecast
This preview is not operational and should not be used for support decisions.

Regional Weather Roundup (RWR)

Issued by National Weather Service (NWS)

                            
000
ASUS44 KMEG 220400
RWRTN 
TENNESSEE HOURLY STATE WEATHER ROUNDUP
NATIONAL WEATHER SERVICE MEMPHIS TN
1100 PM CDT SUN JUL 21 2019

TNZ002-004-019-021-049-052-054-088>092-220500-
WEST TENNESSEE
  
CITY           SKY/WX    TMP DP  RH WIND       PRES   REMARKS
MEMPHIS INTL   FAIR      81  78  91 S7        29.95S                  
NWS MEMPHIS      N/A     78 N/A N/A MISG        N/A                   
JACKSON        FAIR      76  75  97 CALM      29.96F                  
DYERSBURG      FAIR      78  76  93 CALM      29.96R                  
COVINGTON      CLEAR     77  75  94 S5        29.94F                  
BOLIVAR        CLEAR     77  75  94 CALM      29.95F                  
HUNTINGDON     PTCLDY    79  77  94 CALM      29.96R                  
LEXINGTON      CLEAR     77  75  94 CALM      29.96R                  
SELMER         CLEAR     77  75  94 SW3       29.95F                  
SAVANNAH       CLEAR     77  75  94 VRB5      29.95F                  
$$

TNZ008-025-027-028-033-062-065-066-220500-
NORTH MIDDLE TENNESSEE
  
CITY           SKY/WX    TMP DP  RH WIND       PRES   REMARKS
NASHVILLE      FAIR      80  74  81 S5        29.98R                  
PORTLAND       CLOUDY    77  75  94 S5        29.96F                  
CLARKSVILLE    FAIR      80  75  84 SW3       29.96R                  
LEBANON        CLEAR     79  73  83 CALM      29.96R                  
SMYRNA         FAIR      78  74  87 CALM      29.99R                  
MURFREESBORO   CLEAR     77  73  88 S5        29.96S                  
LIVINGSTON     PTCLDY    75  72  88 SW3       30.01S                  
GALLATIN       MOCLDY    79  75  89 CALM      29.99S                  
CROSSVILLE     FAIR      73  70  90 CALM      30.06S                  
$$

TNZ061-075-076-078-094-096-097-220500-
SOUTH MIDDLE TENNESSEE
  
CITY           SKY/WX    TMP DP  RH WIND       PRES   REMARKS
LEWISBURG      CLEAR     77  75  94 CALM      29.98S                  
FAYETTEVILLE   CLOUDY    75  73  94 S9        30.01S FOG              
TULLAHOMA      MOCLDY    73  72  94 CALM      30.00S                  
WINCHESTER     MOCLDY    75  73  94 CALM      30.01R                  
MCMINNVILLE    MOCLDY    73  72  94 CALM      30.01S                  
COLUMBIA       PTCLDY    79  77  94 S6        29.96R                  
$$

TNZ017-018-042-046-047-220500-
NORTHEAST TENNESSEE
  
CITY           SKY/WX    TMP DP  RH WIND       PRES   REMARKS
TRI CITIES     CLOUDY    78  71  79 CALM      30.03F                  
$$

TNZ012-013-036-069-073-074-220500-
CENTRAL EAST TENNESSEE
  
CITY           SKY/WX    TMP DP  RH WIND       PRES   REMARKS
KNOXVILLE      FAIR      79  71  76 SW7       30.00S                  
OAK RIDGE      FAIR      79  73  82 CALM      30.01S                  
GATLINBURG     PTCLDY    77  72  83 S3        30.00F                  
MORRISTOWN     PTCLDY    77  73  88 CALM      30.01F                  
JACKSBORO      MOCLDY    73  73 100 CALM      30.04F                  
$$

TNZ083-085-099-220500-
SOUTHEAST TENNESSEE
  
CITY           SKY/WX    TMP DP  RH WIND       PRES   REMARKS
CHATTANOOGA    MOCLDY    81  73  76 S6        30.01S                  
$$

SKY/WX REPORTED AS FAIR MEANS FEW OR NO CLOUDS BELOW
12 THOUSAND FEET.